Regional Weather Roundup
Issued by NWS

Home | Current Version | Previous Version | Text Only | Print | Product List | Glossary Off
Versions: 1 2 3 4 5 6 7 8 9 10 11 12 13 14 15 16 17 18 19 20 21 22 23 24 25 26 27 28 29 30 31 32 33 34 35 36 37 38 39 40 41 42 43 44 45 46 47 48 49 50

542
ASUS45 KCYS 250710
RWRWY

WYOMING REGIONAL WEATHER ROUNDUP
NATIONAL WEATHER SERVICE CHEYENNE WY
1200 AM MST SUN FEB 25 2018

NOTE:  "FAIR" INDICATES FEW OR NO CLOUDS BELOW 12,000 FEET
WITH NO SIGNIFICANT WEATHER AND/OR OBSTRUCTIONS TO VISIBILITY.

WYZ001-250800-
YELLOWSTONE NATIONAL PARK

CITY           SKY/WX    TMP DP  RH WIND       PRES   REMARKS
LK YELLOWSTONE   N/A     -1  -4  87 CALM      29.74S
W YELLOWSTONE  NOT AVBL

$$
WYZ002>013-054>058-071-098>099-250800-
NORTHERN WYOMING

CITY           SKY/WX    TMP DP  RH WIND       PRES   REMARKS
JACKSON        LGT SNOW  14  11  87 SW7       29.83R FOG     WCI   4
CODY           FAIR      24   6  46 W17G28    29.73R WCI  11
GREYBULL       FAIR      11   3  70 SE7       29.79S WCI   0
WORLAND        FAIR       7   1  76 SE6       29.77F WCI  -3
SHERIDAN       MOCLDY    26   6  42 W8        29.72R WCI  18
BUFFALO        FAIR      21  -2  36 CALM      29.69R
GILLETTE       FAIR      17   3  54 SW20      29.70F WCI   1
HULETT         FAIR      19   3  49 MISG      29.71S
NEWCASTLE      FAIR       9   0  66 N12       29.74S WCI  -6

$$
WYZ014>020-022>026-101>103-250800-
CENTRAL WYOMING

CITY           SKY/WX    TMP DP  RH WIND       PRES   REMARKS
BIG PINEY      FAIR      -4  -7  87 NE3       29.82R
PINEDALE       CLOUDY     5   1  85 CALM      29.82S
DUBOIS           N/A    N/A N/A N/A MISG        N/A
LANDER         FAIR      16   1  51 S3        29.75S
RIVERTON       FAIR      10  -1  61 SW7       29.77R WCI  -1
CASPER         FAIR      18  10  71 SW20      29.77S WCI   2
DOUGLAS        FAIR      18   7  62 VRB5      29.75R WCI  11

$$
WYZ021-027>030-104>119-250800-
SOUTHERN WYOMING

CITY           SKY/WX    TMP DP  RH WIND       PRES   REMARKS
EVANSTON       FAIR      11   8  88 SW12      29.87R WCI  -3
FORT BRIDGER   PTSUNNY   15   9  77 W21G28    29.87R WCI  -3
ROCK SPRINGS   FAIR      13   9  84 W9        29.84S WCI   1
DIXON          CLOUDY    17  11  77 S10       29.90S WCI   5
RAWLINS        CLOUDY    14   9  80 W18G26    29.80F WCI  -3
SARATOGA       CLOUDY    14   5  67 W12       29.82S WCI   0
LARAMIE        CLOUDY    13   4  67 SW21      29.75F WCI  -5
CHEYENNE       FAIR      20   4  50 W18       29.77F WCI   5
TORRINGTON     FAIR      26  11  52 W16G24    29.79R WCI  14
PINE BLUFFS    FAIR      23  10  58 W15G21    29.81R WCI  10

$$




USA.gov is the U.S. government's official web portal to all federal, state and local government web resources and services.